DW6157 Weather Reports


Display with metric or nautical units.
time (UTC)temp
F
wind
direction
speed
MPH
gust
MPH
rain 1hr
in
rain 24hr
in
rain mn
in
humidity
%
barometer
mb
20260505190052 47 235 1.0 8.0 0.00 0.00 0.00 74 1010.6
20260505184550 47 224 3.0 8.0 0.00 0.00 0.00 74 1010.6
20260505183047 47 225 3.0 7.0 0.00 0.00 0.00 72 1010.5
20260505181611 47 224 4.0 10.0 0.00 0.00 0.00 72 1010.5
20260505180101 48 210 5.0 10.0 0.00 0.00 0.00 71 1010.4
20260505174546 48 210 3.0 10.0 0.00 0.00 0.00 70 1010.4
20260505173044 48 221 5.0 11.0 0.00 0.00 0.00 67 1010.4
20260505171544 48 225 2.0 9.0 0.00 0.00 0.00 66 1010.4
20260505170042 48 222 5.0 11.0 0.00 0.00 0.00 64 1010.4
20260505164541 48 216 4.0 12.0 0.00 0.00 0.00 63 1010.3
20260505163041 50 214 8.0 13.0 0.00 0.00 0.00 58 1010.3
20260505161539 50 235 5.0 17.0 0.00 0.00 0.00 50 1010.3
20260505153043 51 268 5.0 16.0 0.00 0.00 0.00 56 1010.2
20260505151536 51 210 6.0 19.0 0.00 0.00 0.00 55 1010.1
20260505124530 56 189 8.0 17.0 0.00 0.00 0.00 43 1009.6
20260505123043 56 286 3.0 10.0 0.00 0.00 0.00 36 1009.6
20260505121526 53 42 0.0 7.0 0.00 0.00 0.00 35 1009.8
20260505120025 53 47 4.0 9.0 0.00 0.00 0.00 30 1009.6
20260505114523 52 33 4.0 13.0 0.00 0.00 0.00 42 1009.7
20260505113022 50 60 5.0 17.0 0.00 0.00 0.00 44 1009.9
20260505111531 52 139 5.0 13.0 0.00 0.00 0.00 39 1009.9
20260505101518 54 285 0.0 5.0 0.00 0.00 0.00 40 1010.2
20260505100015 51 318 0.0 7.0 0.00 0.00 0.00 32 1010.3
20260505094515 51 287 1.0 7.0 0.00 0.00 0.00 32 1010.4
20260505093012 50 54 0.0 5.0 0.00 0.00 0.00 39 1010.3
20260505091510 50 316 1.0 6.0 0.00 0.00 0.00 37 1010.4
20260505090009 50 293 2.0 10.0 0.00 0.00 0.00 39 1010.4
20260505084507 49 50 1.0 6.0 0.00 0.00 0.00 36 1010.4
20260505083005 49 40 0.0 8.0 0.00 0.00 0.00 40 1010.3
20260505081504 49 44 1.0 7.0 0.00 0.00 0.00 39 1010.4
20260505080002 48 296 0.0 12.0 0.00 0.00 0.00 42 1010.3
20260505074559 48 331 2.0 8.0 0.00 0.00 0.00 39 1010.2
20260505073101 47 48 1.0 11.0 0.00 0.00 0.00 41 1010.2
20260505071555 46 336 2.0 10.0 0.00 0.00 0.00 43 1010.1
20260505070100 46 24 3.0 7.0 0.00 0.00 0.00 44 1010.0
20260505064631 45 307 3.0 10.0 0.00 0.00 0.00 46 1009.8
20260505063052 45 315 0.0 5.0 0.00 0.00 0.00 48 1009.9
20260505061551 44 341 0.0 10.0 0.00 0.00 0.00 49 1010.1
20260505060049 44 49 1.0 9.0 0.00 0.00 0.00 50 1010.0
20260505054551 43 27 3.0 10.0 0.00 0.00 0.00 50 1010.0
20260505053047 43 308 3.0 11.0 0.00 0.00 0.00 52 1010.0
20260505051545 42 254 0.0 7.0 0.00 0.00 0.00 54 1009.9
20260505041541 39 297 2.0 8.0 0.00 0.00 0.00 61 1009.7
20260505040039 38 284 1.0 5.0 0.00 0.00 0.00 62 1009.6
20260505034545 37 317 1.0 4.0 0.00 0.00 0.00 63 1009.5
20260505033036 37 303 0.0 6.0 0.00 0.00 0.00 62 1009.4
20260505031534 38 316 1.0 4.0 0.00 0.00 0.00 61 1009.4
20260505030044 38 312 1.0 5.0 0.00 0.00 0.00 60 1009.3
20260505024532 39 296 0.0 7.0 0.00 0.00 0.00 59 1009.2
20260505023039 38 281 2.0 7.0 0.00 0.00 0.00 61 1009.2
20260505021532 38 289 1.0 6.0 0.00 0.00 0.00 62 1009.3
20260505020029 38 293 2.0 6.0 0.00 0.00 0.00 62 1009.2
20260505014535 38 293 2.0 4.0 0.00 0.00 0.00 61 1009.1
20260505013025 38 291 1.0 3.0 0.00 0.00 0.00 62 1008.9
20260505011524 38 288 2.0 4.0 0.00 0.00 0.00 60 1008.9
20260505010020 39 334 0.0 0.0 0.00 0.00 0.00 61 1008.8
20260505004530 39 333 0.0 0.0 0.00 0.00 0.00 62 1008.7
20260505003015 40 333 0.0 8.0 0.00 0.00 0.00 62 1008.5
20260505001514 40 297 0.0 0.0 0.00 0.00 0.00 63 1008.3
20260505000014 42 297 0.0 2.0 0.00 0.00 0.00 59 1008.1
20260504234507 42 293 0.0 4.0 0.00 0.00 0.00 58 1007.9
20260504233003 43 308 1.0 3.0 0.00 0.00 0.00 57 1007.8
20260504231625 44 314 0.0 6.0 0.00 0.00 0.00 54 1007.8
20260504230057 45 331 4.0 8.0 0.00 0.00 0.00 53 1007.6
20260504224553 45 310 3.0 9.0 0.00 0.00 0.00 53 1007.6
20260504223051 46 324 1.0 11.0 0.00 0.00 0.00 53 1007.4
20260504221627 47 291 4.0 10.0 0.00 0.00 0.00 53 1007.3
20260504220045 47 283 4.0 10.0 0.00 0.00 0.00 56 1007.1
20260504214541 48 279 1.0 9.0 0.00 0.00 0.00 56 1006.9
20260504213043 48 341 4.0 9.0 0.00 0.00 0.00 56 1006.6
20260504211537 49 333 2.0 8.0 0.00 0.00 0.00 56 1006.4
20260504210036 49 260 2.0 9.0 0.00 0.00 0.00 58 1006.1
20260504204535 50 283 1.0 6.0 0.00 0.00 0.00 59 1006.0
20260504203034 50 301 1.0 7.0 0.00 0.00 0.00 59 1005.9
20260504201531 51 300 2.0 13.0 0.00 0.00 0.00 58 1005.7
20260504200032 51 319 0.0 10.0 0.00 0.00 0.00 61 1005.6
20260504194530 52 284 1.0 6.0 0.00 0.00 0.00 61 1005.2
20260504193030 52 301 0.0 9.0 0.00 0.00 0.00 59 1005.3
20260504191548 53 266 1.0 10.0 0.00 0.00 0.00 57 1005.2